This is the latest recevied weather packets stored in our database for station/object KK4KTV-13. If no packets are shown the sender has not sent any weather packets the latest 10 day(s).
| Time | Temp. | Humidity | Pressure | Rain* | Wind** | Luminosity | Snow |
|---|---|---|---|---|---|---|---|
| 1777675140 | 16.67° C | 40% | 1012.6 hPa | 0 mm | - | 79 W/m² | - |
| 1777674836 | 16.67° C | 39% | 1012.6 hPa | 0 mm | - | 186 W/m² | - |
| 1777674533 | 16.67° C | 40% | 1012.5 hPa | 0 mm | - | 189 W/m² | - |
| 1777674231 | 16.67° C | 39% | 1012.3 hPa | 0 mm | - | 222 W/m² | - |
| 1777673927 | 16.11° C | 39% | 1012.4 hPa | 0 mm | - | 201 W/m² | - |
| 1777673623 | 16.67° C | 39% | 1012.5 hPa | 0 mm | - | 173 W/m² | - |
| 1777673322 | 16.11° C | 41% | 1012.4 hPa | 0 mm | - | 175 W/m² | - |
| 1777673019 | 16.67° C | 41% | 1012.4 hPa | 0 mm | - | 231 W/m² | - |
| 1777672715 | 16.67° C | 39% | 1012.4 hPa | 0 mm | - | 217 W/m² | - |
| 1777672411 | 16.67° C | 42% | 1012.6 hPa | 0 mm | - | 316 W/m² | - |
| 1777672102 | 16.11° C | 41% | 1012.8 hPa | 0 mm | - | 267 W/m² | - |
| 1777671797 | 16.67° C | 40% | 1012.7 hPa | 0 mm | - | 104 W/m² | - |
| 1777671493 | 16.67° C | 40% | 1012.6 hPa | 0 mm | - | 394 W/m² | - |
| 1777671190 | 16.67° C | 40% | 1012.6 hPa | 0 mm | - | 283 W/m² | - |
| 1777670886 | 16.67° C | 39% | 1012.7 hPa | 0 mm | - | 317 W/m² | - |
| 1777670582 | 17.22° C | 41% | 1012.6 hPa | 0 mm | - | 398 W/m² | - |
| 1777670280 | 17.22° C | 39% | 1012.6 hPa | 0 mm | - | 327 W/m² | - |
| 1777669977 | 16.67° C | 41% | 1012.7 hPa | 0 mm | - | 463 W/m² | - |
| 1777669674 | 17.22° C | 44% | 1012.5 hPa | 0 mm | - | 502 W/m² | - |
| 1777669370 | 17.22° C | 43% | 1012.6 hPa | 0 mm | - | 391 W/m² | - |
| 1777669066 | 16.67° C | 45% | 1012.6 hPa | 0 mm | - | 415 W/m² | - |
| 1777668764 | 16.67° C | 45% | 1012.7 hPa | 0 mm | - | 188 W/m² | - |
| 1777668460 | 16.67° C | 45% | 1012.8 hPa | 0 mm | - | 471 W/m² | - |
| 1777668157 | 17.22° C | 45% | 1012.7 hPa | 0 mm | - | 487 W/m² | - |
| 1777667853 | 17.22° C | 45% | 1012.7 hPa | 0 mm | - | 374 W/m² | - |
* Rain latest hour (hover to see other rain measurements)
** Current wind speed in m/s (hover to see current wind gust speed)